| time (UTC) | temp F | wind direction | speed knots | gust knots | rain 1hr in | rain 24hr in | rain mn in | humidity % | barometer mb |
| 20260506061549 | 76 | 101 | 1.7 | 8.7 | 0.00 | 0.00 | 0.00 | 90 | 1010.4 |
| 20260506060110 | 76 | 118 | 2.6 | 6.1 | 0.00 | 0.00 | 0.00 | 91 | 1010.3 |
| 20260506044604 | 76 | 115 | 1.7 | 7.0 | 0.00 | 0.00 | 0.00 | 89 | 1010.4 |
| 20260506043049 | 76 | 119 | 1.7 | 6.1 | 0.00 | 0.00 | 0.00 | 89 | 1010.1 |
| 20260506041550 | 76 | 117 | 1.7 | 6.1 | 0.00 | 0.00 | 0.00 | 89 | 1010.2 |
| 20260506040053 | 77 | 98 | 1.7 | 6.1 | 0.00 | 0.00 | 0.00 | 89 | 1010.2 |
| 20260506034547 | 77 | 122 | 2.6 | 7.0 | 0.00 | 0.00 | 0.00 | 88 | 1010.1 |
| 20260506033047 | 77 | 117 | 2.6 | 7.0 | 0.00 | 0.00 | 0.00 | 87 | 1009.7 |
| 20260506031557 | 77 | 113 | 3.5 | 9.6 | 0.00 | 0.00 | 0.00 | 86 | 1009.6 |
| 20260506030053 | 77 | 107 | 3.5 | 7.8 | 0.00 | 0.00 | 0.00 | 86 | 1009.6 |
| 20260506024557 | 77 | 101 | 3.5 | 7.0 | 0.00 | 0.00 | 0.00 | 86 | 1009.4 |
| 20260506023050 | 78 | 109 | 3.5 | 9.6 | 0.00 | 0.00 | 0.00 | 86 | 1009.2 |
| 20260506021549 | 78 | 117 | 4.3 | 9.6 | 0.00 | 0.00 | 0.00 | 86 | 1008.8 |
| 20260506020048 | 78 | 103 | 2.6 | 8.7 | 0.00 | 0.00 | 0.00 | 85 | 1008.9 |
| 20260506014552 | 78 | 117 | 3.5 | 8.7 | 0.00 | 0.00 | 0.00 | 84 | 1008.7 |
| 20260506013052 | 78 | 96 | 3.5 | 10.4 | 0.00 | 0.00 | 0.00 | 83 | 1008.5 |
| 20260506011549 | 79 | 110 | 3.5 | 8.7 | 0.00 | 0.00 | 0.00 | 82 | 1008.1 |
| 20260506010048 | 79 | 105 | 3.5 | 7.8 | 0.00 | 0.00 | 0.00 | 81 | 1008.5 |
| 20260506004551 | 79 | 107 | 4.3 | 10.4 | 0.00 | 0.00 | 0.00 | 81 | 1008.2 |
| 20260506003049 | 80 | 112 | 4.3 | 10.4 | 0.00 | 0.00 | 0.00 | 80 | 1007.9 |
| 20260506001552 | 80 | 98 | 5.2 | 12.2 | 0.00 | 0.00 | 0.00 | 78 | 1008.0 |
| 20260506000047 | 80 | 98 | 3.5 | 10.4 | 0.00 | 0.00 | 0.00 | 78 | 1008.0 |
| 20260505234551 | 80 | 115 | 7.0 | 12.2 | 0.00 | 0.00 | 0.00 | 77 | 1007.9 |
| 20260505233050 | 81 | 110 | 5.2 | 13.0 | 0.00 | 0.00 | 0.00 | 78 | 1007.8 |
| 20260505231601 | 81 | 112 | 4.3 | 12.2 | 0.00 | 0.00 | 0.00 | 78 | 1007.7 |
| 20260505230056 | 81 | 75 | 6.1 | 14.8 | 0.00 | 0.00 | 0.00 | 77 | 1007.7 |
| 20260505224548 | 81 | 115 | 5.2 | 15.6 | 0.00 | 0.00 | 0.00 | 78 | 1007.8 |
| 20260505223050 | 82 | 124 | 4.3 | 12.2 | 0.00 | 0.00 | 0.00 | 77 | 1008.0 |
| 20260505221549 | 82 | 90 | 4.3 | 14.8 | 0.00 | 0.00 | 0.00 | 77 | 1007.9 |
| 20260505220046 | 82 | 118 | 4.3 | 12.2 | 0.00 | 0.00 | 0.00 | 77 | 1008.1 |
| 20260505214550 | 82 | 122 | 4.3 | 13.9 | 0.00 | 0.00 | 0.00 | 77 | 1008.1 |
| 20260505213056 | 82 | 119 | 6.1 | 16.5 | 0.00 | 0.00 | 0.00 | 75 | 1008.3 |
| 20260505211552 | 82 | 102 | 5.2 | 12.2 | 0.00 | 0.00 | 0.00 | 76 | 1008.5 |
| 20260505210048 | 82 | 122 | 3.5 | 10.4 | 0.00 | 0.00 | 0.00 | 77 | 1008.7 |
| 20260505204554 | 82 | 77 | 3.5 | 11.3 | 0.00 | 0.00 | 0.00 | 78 | 1009.1 |
| 20260505203047 | 83 | 103 | 4.3 | 11.3 | 0.00 | 0.00 | 0.00 | 77 | 1009.2 |
| 20260505201551 | 83 | 125 | 3.5 | 12.2 | 0.00 | 0.00 | 0.00 | 76 | 1009.4 |
| 20260505200052 | 82 | 125 | 5.2 | 9.6 | 0.00 | 0.00 | 0.00 | 76 | 1009.4 |
| 20260505194551 | 82 | 127 | 3.5 | 10.4 | 0.00 | 0.00 | 0.00 | 76 | 1009.7 |
| 20260505193050 | 82 | 107 | 4.3 | 11.3 | 0.00 | 0.00 | 0.00 | 78 | 1009.7 |
| 20260505191608 | 82 | 116 | 2.6 | 10.4 | 0.00 | 0.00 | 0.00 | 79 | 1009.9 |
| 20260505190052 | 82 | 89 | 2.6 | 13.0 | 0.00 | 0.00 | 0.00 | 77 | 1009.7 |
| 20260505184552 | 81 | 89 | 1.7 | 5.2 | 0.00 | 0.00 | 0.00 | 78 | 1010.0 |
| 20260505183049 | 81 | 121 | 2.6 | 10.4 | 0.00 | 0.00 | 0.00 | 78 | 1010.1 |
| 20260505181548 | 81 | 133 | 2.6 | 8.7 | 0.00 | 0.00 | 0.00 | 77 | 1010.2 |
| 20260505174554 | 80 | 68 | 5.2 | 10.4 | 0.00 | 0.00 | 0.00 | 80 | 1010.6 |
| 20260505173052 | 79 | 129 | 2.6 | 7.8 | 0.00 | 0.00 | 0.00 | 82 | 1010.8 |
| 20260505171549 | 79 | 109 | 2.6 | 9.6 | 0.00 | 0.00 | 0.00 | 82 | 1010.7 |
| 20260505170049 | 79 | 103 | 5.2 | 9.6 | 0.00 | 0.00 | 0.00 | 81 | 1010.7 |
| 20260505164549 | 79 | 134 | 2.6 | 10.4 | 0.00 | 0.00 | 0.00 | 80 | 1010.8 |
| 20260505163046 | 79 | 122 | 2.6 | 8.7 | 0.00 | 0.00 | 0.00 | 82 | 1010.7 |
| 20260505161556 | 78 | 132 | 4.3 | 14.8 | 0.00 | 0.00 | 0.00 | 83 | 1010.7 |
| 20260505153050 | 77 | 91 | 3.5 | 10.4 | 0.00 | 0.00 | 0.00 | 85 | 1010.4 |
| 20260505151553 | 77 | 127 | 5.2 | 12.2 | 0.00 | 0.00 | 0.00 | 86 | 1010.4 |
| 20260505124546 | 72 | 123 | 0.9 | 4.3 | 0.00 | 0.00 | 0.00 | 92 | 1010.1 |
| 20260505123047 | 71 | 119 | 1.7 | 4.3 | 0.00 | 0.00 | 0.00 | 93 | 1010.0 |
| 20260505121553 | 71 | 118 | 1.7 | 5.2 | 0.00 | 0.00 | 0.00 | 93 | 1009.8 |
| 20260505120053 | 70 | 121 | 1.7 | 5.2 | 0.00 | 0.00 | 0.00 | 93 | 1009.5 |
| 20260505114556 | 70 | 120 | 1.7 | 3.5 | 0.00 | 0.00 | 0.00 | 92 | 1009.6 |
| 20260505113052 | 70 | 122 | 0.9 | 4.3 | 0.00 | 0.00 | 0.00 | 92 | 1009.7 |
| 20260505111552 | 70 | 120 | 1.7 | 5.2 | 0.00 | 0.00 | 0.00 | 92 | 1009.5 |
| 20260505101605 | 70 | 124 | 0.9 | 3.5 | 0.00 | 0.00 | 0.00 | 92 | 1009.7 |
| 20260505094548 | 70 | 103 | 1.7 | 5.2 | 0.00 | 0.00 | 0.00 | 91 | 1009.8 |
| 20260505093055 | 70 | 103 | 2.6 | 5.2 | 0.00 | 0.00 | 0.00 | 91 | 1009.8 |
| 20260505091545 | 70 | 118 | 1.7 | 6.1 | 0.00 | 0.00 | 0.00 | 90 | 1009.9 |
| 20260505090045 | 70 | 120 | 1.7 | 6.1 | 0.00 | 0.00 | 0.00 | 90 | 1010.0 |
| 20260505084546 | 70 | 109 | 1.7 | 6.1 | 0.00 | 0.00 | 0.00 | 90 | 1010.1 |
| 20260505083048 | 70 | 125 | 0.9 | 3.5 | 0.00 | 0.00 | 0.00 | 90 | 1010.2 |
| 20260505081558 | 70 | 115 | 1.7 | 4.3 | 0.00 | 0.00 | 0.00 | 89 | 1010.1 |
| 20260505080057 | 70 | 124 | 1.7 | 5.2 | 0.00 | 0.00 | 0.00 | 89 | 1010.3 |
| 20260505074551 | 70 | 103 | 2.6 | 6.1 | 0.00 | 0.00 | 0.00 | 89 | 1010.4 |
| 20260505073049 | 70 | 121 | 2.6 | 6.1 | 0.00 | 0.00 | 0.00 | 88 | 1010.5 |
| 20260505071554 | 70 | 121 | 1.7 | 5.2 | 0.00 | 0.00 | 0.00 | 88 | 1010.6 |